Location: Altavilla Irpina
(41.0000°N, 14.7833°E)
Time: 17:00:47
(UTC+00:00)

USA 234 - Pass Details

Date: 19 May 2025
Orbit: 1097 x 1111 km, 123.0° (Epoch: 13 June)

Event Time Altitude Azimuth Distance (km) Brightness Sun altitude
Rises 20:48:16 0° 45° (NE) 3,924 6.3 -22.1°
Reaches altitude 10° 20:50:51 10° 39° (NE) 2,966 5.7 -22.3°
Maximum altitude 20:56:59 45° 330° (NNW) 1,475 4.4 -22.9°
Drops below altitude 10° 21:03:07 10° 260° (W) 2,967 5.7 -23.5°
Sets 21:05:43 0° 255° (WSW) 3,925 6.3 -23.7°
